| time (UTC) | temp F | wind direction | speed knots | gust knots | rain 1hr in | rain 24hr in | rain mn in | humidity % | barometer mb |
| 20260505200355 | 72 | 113 | 3.5 | 6.1 | 0.00 | 0.00 | 0.02 | 92 | 1010.2 |
| 20260505195845 | 72 | 113 | 3.5 | 6.1 | 0.00 | 0.00 | 0.02 | 92 | 1010.2 |
| 20260505195335 | 72 | 90 | 4.3 | 6.1 | 0.00 | 0.00 | 0.02 | 92 | 1010.2 |
| 20260505193805 | 72 | 113 | 3.5 | 6.1 | 0.00 | 0.00 | 0.02 | 92 | 1010.2 |
| 20260505193254 | 72 | 113 | 3.5 | 5.2 | 0.00 | 0.00 | 0.02 | 91 | 1010.2 |
| 20260505192234 | 72 | 90 | 3.5 | 5.2 | 0.00 | 0.00 | 0.02 | 92 | 1010.2 |
| 20260505191724 | 72 | 113 | 2.6 | 6.1 | 0.00 | 0.00 | 0.02 | 92 | 1010.2 |
| 20260505191214 | 72 | 90 | 3.5 | 6.1 | 0.00 | 0.00 | 0.02 | 91 | 1010.2 |
| 20260505190703 | 72 | 90 | 3.5 | 6.1 | 0.00 | 0.00 | 0.02 | 91 | 1010.2 |
| 20260505190153 | 72 | 113 | 4.3 | 6.1 | 0.00 | 0.00 | 0.02 | 91 | 1010.2 |
| 20260505185644 | 72 | 113 | 3.5 | 7.0 | 0.00 | 0.00 | 0.02 | 91 | 1010.2 |
| 20260505185132 | 72 | 68 | 3.5 | 7.0 | 0.00 | 0.00 | 0.02 | 91 | 1010.2 |
| 20260505184623 | 72 | 113 | 3.5 | 6.1 | 0.00 | 0.00 | 0.02 | 91 | 1010.2 |
| 20260505184112 | 72 | 113 | 2.6 | 5.2 | 0.00 | 0.00 | 0.02 | 91 | 1010.3 |
| 20260505183602 | 72 | 113 | 2.6 | 6.1 | 0.00 | 0.00 | 0.02 | 91 | 1010.4 |
| 20260505183053 | 72 | 113 | 3.5 | 6.1 | 0.00 | 0.00 | 0.02 | 91 | 1010.5 |
| 20260505182542 | 72 | 113 | 3.5 | 5.2 | 0.00 | 0.00 | 0.02 | 91 | 1010.4 |
| 20260505130256 | 67 | 23 | 2.6 | 5.2 | 0.00 | 0.00 | 0.00 | 90 | 1012.3 |
| 20260505124725 | 66 | 68 | 0.0 | 5.2 | 0.00 | 0.00 | 0.00 | 91 | 1011.9 |
| 20260505124216 | 65 | 113 | 2.6 | 5.2 | 0.00 | 0.00 | 0.00 | 91 | 1011.7 |
| 20260505123706 | 65 | 90 | 2.6 | 3.5 | 0.00 | 0.00 | 0.00 | 91 | 1011.9 |
| 20260505122646 | 64 | 45 | 1.7 | 5.2 | 0.00 | 0.00 | 0.00 | 91 | 1012.1 |
| 20260505122135 | 64 | 45 | 2.6 | 6.1 | 0.00 | 0.00 | 0.00 | 92 | 1012.0 |
| 20260505120605 | 62 | 45 | 2.6 | 5.2 | 0.00 | 0.00 | 0.00 | 92 | 1012.4 |
| 20260505114525 | 61 | 68 | 0.0 | 3.5 | 0.00 | 0.00 | 0.00 | 92 | 1012.1 |
| 20260505114014 | 61 | 45 | 0.0 | 3.5 | 0.00 | 0.00 | 0.00 | 92 | 1012.0 |
| 20260505113505 | 61 | 45 | 1.7 | 3.5 | 0.00 | 0.00 | 0.00 | 92 | 1012.0 |
| 20260505112954 | 60 | 45 | 1.7 | 3.5 | 0.00 | 0.00 | 0.00 | 92 | 1012.0 |
| 20260505112444 | 60 | 45 | 1.7 | 3.5 | 0.00 | 0.00 | 0.00 | 92 | 1011.9 |
| 20260505111934 | 60 | 45 | 1.7 | 3.5 | 0.00 | 0.00 | 0.00 | 92 | 1011.9 |
| 20260505111423 | 61 | 68 | 0.0 | 0.0 | 0.00 | 0.00 | 0.00 | 92 | 1011.7 |
| 20260505110913 | 61 | 68 | 0.0 | 0.0 | 0.00 | 0.00 | 0.00 | 92 | 1011.6 |
| 20260505110404 | 60 | 90 | 0.0 | 0.0 | 0.00 | 0.00 | 0.00 | 92 | 1011.7 |
| 20260505101732 | 59 | 90 | 0.0 | 0.0 | 0.00 | 0.00 | 0.00 | 92 | 1011.5 |
| 20260505101222 | 59 | 90 | 0.0 | 1.7 | 0.00 | 0.00 | 0.00 | 92 | 1011.5 |
| 20260505100202 | 59 | 90 | 1.7 | 3.5 | 0.00 | 0.00 | 0.00 | 92 | 1011.2 |
| 20260505095137 | 60 | 113 | 0.0 | 0.0 | 0.00 | 0.00 | 0.00 | 91 | 1011.2 |
| 20260505094634 | 60 | 68 | 0.0 | 0.0 | 0.00 | 0.00 | 0.00 | 92 | 1011.3 |
| 20260505094121 | 60 | 90 | 0.0 | 0.0 | 0.00 | 0.00 | 0.00 | 92 | 1011.2 |
| 20260505093611 | 60 | 90 | 0.0 | 0.0 | 0.00 | 0.00 | 0.00 | 91 | 1011.1 |
| 20260505093101 | 60 | 68 | 0.0 | 1.7 | 0.00 | 0.00 | 0.00 | 92 | 1011.0 |
| 20260505092550 | 60 | 23 | 0.0 | 1.7 | 0.00 | 0.00 | 0.00 | 92 | 1011.0 |
| 20260505092041 | 60 | 45 | 0.0 | 1.7 | 0.00 | 0.00 | 0.00 | 92 | 1010.9 |
| 20260505091531 | 60 | 45 | 0.0 | 3.5 | 0.00 | 0.00 | 0.00 | 92 | 1010.8 |
| 20260505090510 | 60 | 45 | 1.7 | 3.5 | 0.00 | 0.00 | 0.00 | 91 | 1010.6 |
| 20260505090000 | 60 | 45 | 2.6 | 3.5 | 0.00 | 0.00 | 0.00 | 91 | 1010.6 |
| 20260505085450 | 60 | 45 | 1.7 | 3.5 | 0.00 | 0.00 | 0.00 | 91 | 1010.6 |
| 20260505084940 | 60 | 45 | 0.0 | 3.5 | 0.00 | 0.00 | 0.00 | 91 | 1010.6 |
| 20260505084429 | 60 | 45 | 1.7 | 3.5 | 0.00 | 0.00 | 0.00 | 91 | 1010.6 |
| 20260505083920 | 60 | 23 | 1.7 | 3.5 | 0.00 | 0.00 | 0.00 | 91 | 1010.5 |
| 20260505083410 | 60 | 45 | 1.7 | 3.5 | 0.00 | 0.00 | 0.00 | 91 | 1010.4 |
| 20260505082859 | 60 | 45 | 1.7 | 3.5 | 0.00 | 0.00 | 0.00 | 91 | 1010.4 |
| 20260505082349 | 60 | 45 | 1.7 | 5.2 | 0.00 | 0.00 | 0.00 | 91 | 1010.3 |
| 20260505081839 | 60 | 23 | 3.5 | 5.2 | 0.00 | 0.00 | 0.00 | 90 | 1010.3 |
| 20260505081328 | 60 | 23 | 3.5 | 5.2 | 0.00 | 0.00 | 0.00 | 90 | 1010.2 |
| 20260505080819 | 60 | 45 | 3.5 | 5.2 | 0.00 | 0.00 | 0.00 | 90 | 1010.2 |
| 20260505080308 | 60 | 23 | 3.5 | 6.1 | 0.00 | 0.00 | 0.00 | 90 | 1010.3 |
| 20260505074738 | 59 | 45 | 2.6 | 6.1 | 0.00 | 0.00 | 0.00 | 89 | 1010.3 |
| 20260505073718 | 59 | 45 | 3.5 | 7.0 | 0.00 | 0.00 | 0.00 | 88 | 1010.4 |
| 20260505072657 | 59 | 23 | 3.5 | 7.0 | 0.00 | 0.00 | 0.00 | 87 | 1010.4 |
| 20260505072147 | 59 | 45 | 3.5 | 7.0 | 0.00 | 0.00 | 0.00 | 87 | 1010.3 |
| 20260505071637 | 59 | 23 | 3.5 | 6.1 | 0.00 | 0.00 | 0.00 | 87 | 1010.3 |
| 20260505071127 | 59 | 45 | 4.3 | 6.1 | 0.00 | 0.00 | 0.00 | 87 | 1010.3 |
| 20260505070618 | 59 | 45 | 3.5 | 5.2 | 0.00 | 0.00 | 0.00 | 87 | 1010.4 |
| 20260505070107 | 58 | 45 | 2.6 | 3.5 | 0.00 | 0.00 | 0.00 | 86 | 1010.2 |
| 20260505065557 | 58 | 45 | 2.6 | 3.5 | 0.00 | 0.00 | 0.00 | 86 | 1010.3 |
| 20260505065046 | 58 | 23 | 1.7 | 3.5 | 0.00 | 0.00 | 0.00 | 85 | 1010.4 |
| 20260505064536 | 57 | 45 | 1.7 | 3.5 | 0.00 | 0.00 | 0.00 | 85 | 1010.5 |
| 20260505064026 | 57 | 68 | 2.6 | 5.2 | 0.00 | 0.00 | 0.00 | 85 | 1010.7 |
| 20260505063516 | 57 | 45 | 3.5 | 5.2 | 0.00 | 0.00 | 0.00 | 85 | 1010.6 |
| 20260505063006 | 57 | 45 | 1.7 | 3.5 | 0.00 | 0.00 | 0.00 | 84 | 1010.5 |
| 20260505062457 | 57 | 45 | 2.6 | 3.5 | 0.00 | 0.00 | 0.00 | 83 | 1010.5 |
| 20260505061946 | 57 | 68 | 1.7 | 3.5 | 0.00 | 0.00 | 0.00 | 83 | 1010.7 |
| 20260505061436 | 57 | 45 | 2.6 | 3.5 | 0.00 | 0.00 | 0.00 | 82 | 1010.8 |
| 20260505060926 | 57 | 68 | 2.6 | 3.5 | 0.00 | 0.00 | 0.00 | 82 | 1010.9 |
| 20260505060203 | 57 | 68 | 1.7 | 0.0 | 0.00 | 0.00 | 0.00 | 82 | 1011.0 |
| 20260505055628 | 57 | 45 | 1.7 | 3.5 | 0.00 | 0.00 | 0.00 | 82 | 1010.9 |
| 20260505055117 | 56 | 68 | 1.7 | 3.5 | 0.00 | 0.00 | 0.00 | 82 | 1010.9 |
| 20260505054607 | 56 | 68 | 1.7 | 3.5 | 0.00 | 0.00 | 0.00 | 82 | 1010.7 |
| 20260505054058 | 56 | 68 | 2.6 | 3.5 | 0.00 | 0.00 | 0.00 | 83 | 1010.7 |
| 20260505053547 | 56 | 90 | 3.5 | 3.5 | 0.00 | 0.00 | 0.00 | 83 | 1010.7 |
| 20260505053037 | 56 | 68 | 1.7 | 3.5 | 0.00 | 0.00 | 0.00 | 83 | 1010.7 |
| 20260505052526 | 56 | 45 | 1.7 | 3.5 | 0.00 | 0.00 | 0.00 | 82 | 1010.7 |
| 20260505041305 | 54 | 68 | 0.0 | 1.7 | 0.00 | 0.00 | 0.00 | 81 | 1010.9 |
| 20260505040754 | 54 | 45 | 0.0 | 3.5 | 0.00 | 0.00 | 0.00 | 81 | 1011.0 |
| 20260505040244 | 53 | 45 | 0.0 | 3.5 | 0.00 | 0.00 | 0.00 | 81 | 1010.9 |
| 20260505035734 | 53 | 45 | 1.7 | 3.5 | 0.00 | 0.00 | 0.00 | 81 | 1011.1 |
| 20260505035224 | 54 | 45 | 1.7 | 3.5 | 0.00 | 0.00 | 0.00 | 80 | 1011.2 |
| 20260505034714 | 55 | 68 | 1.7 | 3.5 | 0.00 | 0.00 | 0.00 | 79 | 1011.1 |
| 20260505034204 | 55 | 68 | 1.7 | 3.5 | 0.00 | 0.00 | 0.00 | 79 | 1011.3 |
| 20260505033654 | 55 | 68 | 1.7 | 3.5 | 0.00 | 0.00 | 0.00 | 79 | 1011.1 |
| 20260505033144 | 55 | 45 | 1.7 | 3.5 | 0.00 | 0.00 | 0.00 | 79 | 1011.2 |
| 20260505032633 | 55 | 45 | 1.7 | 3.5 | 0.00 | 0.00 | 0.00 | 79 | 1010.9 |
| 20260505032122 | 55 | 45 | 1.7 | 3.5 | 0.00 | 0.00 | 0.00 | 79 | 1011.0 |
| 20260505031103 | 55 | 45 | 1.7 | 3.5 | 0.00 | 0.00 | 0.00 | 79 | 1010.8 |
| 20260505030552 | 55 | 45 | 1.7 | 3.5 | 0.00 | 0.00 | 0.00 | 79 | 1010.8 |
| 20260505030043 | 55 | 45 | 1.7 | 3.5 | 0.00 | 0.00 | 0.00 | 79 | 1010.7 |
| 20260505025532 | 55 | 45 | 1.7 | 3.5 | 0.00 | 0.00 | 0.00 | 78 | 1010.6 |
| 20260505025023 | 55 | 68 | 1.7 | 3.5 | 0.00 | 0.00 | 0.00 | 78 | 1010.6 |
| 20260505024516 | 55 | 68 | 1.7 | 5.2 | 0.00 | 0.00 | 0.00 | 78 | 1010.7 |
| 20260505024001 | 55 | 68 | 3.5 | 5.2 | 0.00 | 0.00 | 0.00 | 78 | 1010.6 |
| 20260505023452 | 55 | 45 | 3.5 | 5.2 | 0.00 | 0.00 | 0.00 | 77 | 1010.6 |
| 20260505022941 | 56 | 45 | 1.7 | 6.1 | 0.00 | 0.00 | 0.00 | 76 | 1010.7 |
| 20260505021922 | 55 | 68 | 3.5 | 6.1 | 0.00 | 0.00 | 0.00 | 78 | 1010.5 |
| 20260505021411 | 55 | 68 | 3.5 | 6.1 | 0.00 | 0.00 | 0.00 | 77 | 1010.4 |
| 20260505020351 | 56 | 45 | 3.5 | 5.2 | 0.00 | 0.00 | 0.00 | 77 | 1010.5 |
| 20260505015841 | 56 | 45 | 3.5 | 5.2 | 0.00 | 0.00 | 0.00 | 77 | 1010.5 |
| 20260505015331 | 56 | 68 | 3.5 | 5.2 | 0.00 | 0.00 | 0.00 | 77 | 1010.6 |
| 20260505014820 | 55 | 45 | 2.6 | 5.2 | 0.00 | 0.00 | 0.00 | 77 | 1010.5 |
| 20260505014310 | 56 | 68 | 2.6 | 5.2 | 0.00 | 0.00 | 0.00 | 78 | 1010.5 |
| 20260505013801 | 54 | 45 | 1.7 | 5.2 | 0.00 | 0.00 | 0.00 | 78 | 1010.5 |
| 20260505012740 | 55 | 68 | 1.7 | 5.2 | 0.00 | 0.00 | 0.00 | 77 | 1010.4 |
| 20260505012230 | 55 | 68 | 1.7 | 5.2 | 0.00 | 0.00 | 0.00 | 77 | 1010.5 |
| 20260505011720 | 55 | 45 | 1.7 | 3.5 | 0.00 | 0.00 | 0.00 | 78 | 1010.4 |
| 20260505011210 | 54 | 45 | 1.7 | 3.5 | 0.00 | 0.00 | 0.00 | 78 | 1010.5 |
| 20260505010658 | 55 | 45 | 1.7 | 3.5 | 0.00 | 0.00 | 0.00 | 78 | 1010.3 |
| 20260505010150 | 55 | 68 | 1.7 | 3.5 | 0.00 | 0.00 | 0.00 | 78 | 1010.3 |
| 20260505005639 | 55 | 45 | 1.7 | 3.5 | 0.00 | 0.00 | 0.00 | 77 | 1010.2 |
| 20260505005129 | 56 | 45 | 2.6 | 3.5 | 0.00 | 0.00 | 0.00 | 76 | 1010.2 |
| 20260505004619 | 56 | 45 | 0.0 | 3.5 | 0.00 | 0.00 | 0.00 | 76 | 1010.1 |
| 20260505004109 | 56 | 45 | 2.6 | 5.2 | 0.00 | 0.00 | 0.00 | 77 | 1010.1 |
| 20260505003607 | 55 | 45 | 1.7 | 5.2 | 0.00 | 0.00 | 0.00 | 77 | 1009.8 |
| 20260505003048 | 56 | 23 | 1.7 | 5.2 | 0.00 | 0.00 | 0.00 | 75 | 1009.9 |
| 20260505002538 | 56 | 45 | 1.7 | 3.5 | 0.00 | 0.00 | 0.00 | 75 | 1009.7 |
| 20260505002028 | 56 | 45 | 2.6 | 3.5 | 0.00 | 0.00 | 0.00 | 76 | 1009.8 |
| 20260505001007 | 57 | 45 | 2.6 | 5.2 | 0.00 | 0.00 | 0.00 | 75 | 1009.8 |
| 20260505000458 | 57 | 45 | 3.5 | 5.2 | 0.00 | 0.00 | 0.00 | 74 | 1009.7 |
| 20260504235947 | 57 | 45 | 3.5 | 6.1 | 0.00 | 0.00 | 0.00 | 74 | 1009.7 |
| 20260504235437 | 57 | 45 | 3.5 | 6.1 | 0.00 | 0.00 | 0.00 | 74 | 1009.5 |
| 20260504234926 | 57 | 45 | 3.5 | 6.1 | 0.00 | 0.00 | 0.00 | 74 | 1009.5 |
| 20260504233353 | 57 | 45 | 3.5 | 5.2 | 0.00 | 0.00 | 0.00 | 74 | 1009.4 |
| 20260504232847 | 57 | 45 | 2.6 | 5.2 | 0.00 | 0.00 | 0.00 | 75 | 1009.3 |
| 20260504231830 | 57 | 45 | 2.6 | 5.2 | 0.00 | 0.00 | 0.00 | 74 | 1009.1 |
| 20260504231316 | 57 | 45 | 3.5 | 5.2 | 0.00 | 0.00 | 0.00 | 74 | 1009.1 |
| 20260504230805 | 57 | 45 | 2.6 | 5.2 | 0.00 | 0.00 | 0.00 | 74 | 1009.1 |
| 20260504230255 | 57 | 45 | 3.5 | 5.2 | 0.00 | 0.00 | 0.00 | 74 | 1008.8 |
| 20260504225746 | 58 | 68 | 0.0 | 5.2 | 0.00 | 0.00 | 0.00 | 72 | 1009.0 |
| 20260504225235 | 59 | 45 | 1.7 | 5.2 | 0.00 | 0.00 | 0.00 | 71 | 1009.0 |
| 20260504224726 | 58 | 68 | 1.7 | 5.2 | 0.00 | 0.00 | 0.00 | 71 | 1008.9 |
| 20260504224215 | 59 | 45 | 1.7 | 5.2 | 0.00 | 0.00 | 0.00 | 71 | 1008.8 |
| 20260504223706 | 60 | 45 | 0.9 | 5.2 | 0.00 | 0.00 | 0.00 | 69 | 1008.7 |
| 20260504223155 | 61 | 45 | 3.5 | 5.2 | 0.00 | 0.00 | 0.00 | 67 | 1008.6 |
| 20260504222134 | 62 | 45 | 2.6 | 5.2 | 0.00 | 0.00 | 0.00 | 66 | 1008.6 |
| 20260504221624 | 62 | 45 | 2.6 | 5.2 | 0.00 | 0.00 | 0.00 | 65 | 1008.6 |
| 20260504221113 | 61 | 68 | 1.7 | 3.5 | 0.00 | 0.00 | 0.00 | 66 | 1008.3 |
| 20260504220604 | 62 | 45 | 3.5 | 5.2 | 0.00 | 0.00 | 0.00 | 65 | 1008.4 |
| 20260504220053 | 62 | 45 | 3.5 | 5.2 | 0.00 | 0.00 | 0.00 | 64 | 1008.3 |
| 20260504215543 | 62 | 45 | 2.6 | 5.2 | 0.00 | 0.00 | 0.00 | 65 | 1008.1 |
| 20260504215033 | 62 | 45 | 3.5 | 5.2 | 0.00 | 0.00 | 0.00 | 64 | 1008.0 |
| 20260504214013 | 63 | 68 | 1.7 | 3.5 | 0.00 | 0.00 | 0.00 | 63 | 1008.0 |
| 20260504213504 | 65 | 45 | 0.9 | 1.7 | 0.00 | 0.00 | 0.00 | 61 | 1008.0 |
| 20260504212953 | 65 | 45 | 0.0 | 1.7 | 0.00 | 0.00 | 0.00 | 59 | 1007.9 |
| 20260504212442 | 67 | 45 | 0.0 | 1.7 | 0.00 | 0.00 | 0.00 | 57 | 1008.0 |
| 20260504211933 | 66 | 45 | 0.0 | 3.5 | 0.00 | 0.00 | 0.00 | 58 | 1008.0 |
| 20260504211423 | 67 | 45 | 0.0 | 3.5 | 0.00 | 0.00 | 0.00 | 57 | 1007.9 |
| 20260504210913 | 68 | 45 | 1.7 | 5.2 | 0.00 | 0.00 | 0.00 | 57 | 1008.2 |
| 20260504210402 | 68 | 45 | 2.6 | 5.2 | 0.00 | 0.00 | 0.00 | 56 | 1008.0 |
| 20260504205852 | 68 | 45 | 2.6 | 5.2 | 0.00 | 0.00 | 0.00 | 56 | 1008.0 |
| 20260504205345 | 69 | 45 | 2.6 | 5.2 | 0.00 | 0.00 | 0.00 | 56 | 1008.0 |
| 20260504204831 | 70 | 45 | 2.6 | 5.2 | 0.00 | 0.00 | 0.00 | 54 | 1008.1 |
| 20260504204322 | 70 | 45 | 3.5 | 5.2 | 0.00 | 0.00 | 0.00 | 53 | 1008.1 |
| 20260504203811 | 71 | 45 | 2.6 | 6.1 | 0.00 | 0.00 | 0.00 | 52 | 1008.1 |
| 20260504202241 | 72 | 23 | 3.5 | 6.1 | 0.00 | 0.00 | 0.00 | 49 | 1008.2 |
| 20260504201731 | 72 | 45 | 4.3 | 7.0 | 0.00 | 0.00 | 0.00 | 50 | 1008.2 |
| 20260504201222 | 72 | 45 | 3.5 | 7.8 | 0.00 | 0.00 | 0.00 | 48 | 1008.2 |
| 20260504200711 | 73 | 45 | 2.6 | 7.8 | 0.00 | 0.00 | 0.00 | 48 | 1008.1 |